[[{"header":{"parameterUnit":"m.s-1","parameterCategory":1,"la1":30.2991,"la2":30.254,"lo1":-89.0895,"lo2":-89.0444,"dy":0.0017,"dx":0.0017,"nx":28,"ny":28,"refTime":"2024-04-27T03:00:00:Z","depth":0,"parameterNumber":2,"parameterNumberName":"U-component_of_WINDS"},"data":[0,0,0,0,0,0,0,0,0,0,0,0,0,0,0,0,0,0,0,0,0,0,0,0,0,0,0,0,0,0,0,0,0,0,0,0,0,0,0,0,0,0,0,0,0,0,0,0,0,0,0,0,0,0,0,0,0,0,-7.389,-7.3891,0,-7.4031,-7.4033,-7.4034,-7.3995,-7.3992,-7.399,-7.3987,-7.4125,-7.4131,-7.4137,0,0,0,0,0,0,0,0,0,0,0,0,0,-7.3581,-7.3587,-7.389,-7.3891,-7.3893,-7.4031,-7.4033,-7.4035,-7.3996,-7.3992,-7.3989,-7.3986,-7.4123,-7.413,-7.4138,0,0,0,0,0,0,0,0,0,0,0,0,0,-7.3718,-7.3589,-7.3889,-7.3891,-7.3892,-7.403,-7.4033,-7.4035,-7.3996,-7.3992,-7.3988,-7.3984,-7.412,-7.4129,-7.4139,-7.4282,0,0,-7.4168,-7.4172,0,0,0,0,0,0,0,0,-7.371,-7.3729,-7.3889,-7.3891,-7.3893,-7.3991,-7.3974,-7.4118,-7.3997,-7.3957,-7.3987,-7.3982,-7.4083,-7.4095,-7.4131,-7.4289,-7.4294,-7.4168,-7.4174,-7.4178,-7.4181,0,0,0,0,0,0,0,-7.37,-7.3723,-7.3945,-7.3891,-7.3893,-7.3882,-7.3897,-7.4001,-7.4042,-7.396,-7.3957,-7.3975,-7.4083,-7.4122,-7.4134,-7.4296,-7.4168,-7.4176,-7.4182,-7.4186,-7.4578,-7.4582,0,0,0,0,0,0,-7.369,-7.3715,-7.3941,-7.3949,-7.3789,-7.3891,-7.3908,-7.3964,-7.4041,-7.4048,-7.3978,-7.3973,-7.4108,-7.4123,-7.4139,-7.431,-7.4178,-7.4187,-7.4192,-7.4573,-7.4579,-7.4584,0,0,0,0,0,0,-7.3684,-7.3711,-7.3935,-7.3832,-7.3859,-7.3901,-7.3964,-7.3969,-7.4007,-7.4055,-7.4061,-7.4011,-7.4105,-7.4125,-7.4247,-7.4314,-7.4191,-7.42,-7.4568,-7.4575,-7.4581,-7.4655,0,0,0,0,0,0,-7.3675,-7.3709,-7.3765,-7.3833,-7.3865,-7.4043,-7.3969,-7.3975,-7.4025,-7.4018,-7.4087,-7.4094,-7.4103,-7.4233,-7.4256,-7.4325,-7.4207,-7.4562,-7.4571,-7.4579,-7.4646,-7.4664,-7.4678,0,0,0,0,0,-7.3664,-7.3778,-7.3768,-7.3795,-7.3936,-7.4047,-7.4065,-7.4075,-7.403,-7.4086,-7.4117,-7.4092,-7.4305,-7.4246,-7.4272,-7.4344,-7.4557,-7.4568,-7.4579,-7.4639,-7.466,-7.4678,0,0,0,0,0,0,-7.3713,-7.3787,-7.3776,-7.3916,-7.3976,-7.404,-7.411,-7.4097,-7.4168,-7.4159,-7.4168,-7.4183,-7.4308,-7.4339,-7.4272,-7.4487,-7.4424,-7.444,-7.4461,-7.4482,-7.4497,-7.4485,-7.4215,0,0,0,0,0,-7.3741,-7.3827,-7.3886,-7.4004,-7.4035,-7.4068,-7.4116,-7.412,-7.4181,-7.4205,-7.4244,-7.4302,-7.4382,-7.4434,-7.4511,-7.4653,-7.4665,-7.4715,-7.4731,-7.4744,-7.4756,-7.4832,-7.4854,-7.4619,-7.4619,-7.4619,0,0,-7.3798,-7.3849,-7.3902,-7.4015,-7.4061,-7.4148,-7.4089,-7.4182,-7.4246,-7.4218,-7.4335,-7.4367,-7.4432,-7.4565,-7.4625,-7.4594,-7.4825,-7.4758,-7.4768,-7.4773,-7.4846,-7.4868,-7.4888,-7.4626,-7.4625,-7.4624,0,0,-7.3945,-7.3994,-7.4096,-7.4145,-7.4218,-7.4239,-7.4264,-7.4332,-7.4352,-7.4471,-7.4452,-7.4527,-7.4665,-7.4712,-7.4754,-7.4922,-7.4901,-7.4947,-7.5028,-7.5102,-7.512,-7.5136,-7.5194,-7.5214,-7.496,-7.4961,-7.4961,0,-7.4005,-7.4136,-7.415,-7.4246,-7.4296,-7.4279,-7.4382,-7.4428,-7.452,-7.4554,-7.452,-7.4693,-7.4736,-7.4878,-7.492,-7.4956,-7.4982,-7.4937,-7.5117,-7.5133,-7.5149,-7.5203,-7.5225,-7.4965,-7.4965,-7.4964,-7.4964,0,-7.4206,-7.4297,-7.4372,-7.4464,-7.4522,-7.4621,-7.4649,-7.4706,-7.4706,-7.4731,-7.4851,-7.4903,-7.4989,-7.5024,-7.5024,-7.5167,-7.5145,-7.5115,-7.505,-7.5176,-7.5227,-7.5248,-7.4972,-7.4971,-7.4969,-7.4968,0,0,-7.4383,-7.4485,-7.4511,-7.4553,-7.4633,-7.4702,-7.4801,-7.4888,-7.4935,-7.5001,-7.5081,-7.5201,-7.5173,-7.5221,-7.5226,-7.5292,-7.5419,-7.5252,-7.5254,-7.5278,-7.5576,-7.5596,-7.562,-7.5408,-7.5412,-7.5415,-7.557,0,-7.4534,-7.4708,-7.4725,-7.4881,-7.4964,-7.4951,-7.5036,-7.5093,-7.5121,-7.5194,-7.5223,-7.5306,-7.5265,-7.5293,-7.5358,-7.5389,-7.5478,-7.5379,-7.5479,-7.5482,-7.5458,-7.5647,-7.5669,-7.5812,-7.559,-7.5594,-7.5596,0,-7.4732,-7.4806,-7.497,-7.5039,-7.5075,-7.5151,-7.5232,-7.5304,-7.5369,-7.5384,-7.5439,-7.5436,-7.5535,-7.5472,-7.5608,-7.554,-7.5583,-7.5605,-7.5611,-7.5616,-7.5543,-7.5654,-7.5858,-7.5878,-7.5628,-7.5626,-7.5623,0,-7.4841,-7.4981,-7.5098,-7.5134,-7.5218,-7.5272,-7.5309,-7.5371,-7.5422,-7.5493,-7.5525,-7.5607,-7.565,-7.5712,-7.573,-7.5683,-7.5865,-7.5803,-7.5877,-7.5876,-7.5911,-7.5908,-7.6121,-7.5947,-7.5946,-7.5946,-7.5945,0,-7.5005,-7.5105,-7.5148,-7.5218,-7.533,-7.5349,-7.5458,-7.5493,-7.5548,-7.5623,-7.5618,-7.5689,-7.5711,-7.5786,-7.5802,-7.591,-7.5931,-7.5943,-7.5945,-7.5941,-7.5939,-7.5966,-7.5955,-7.5952,-7.595,-7.5949,-7.5948,0,-7.5143,-7.5176,-7.5301,-7.5372,-7.5392,-7.5471,-7.553,-7.5598,-7.5626,-7.5722,-7.5746,-7.5788,-7.5876,-7.5902,-7.6007,-7.6017,-7.6144,-7.6139,-7.6122,-7.6121,-7.6192,-7.6183,-7.6425,-7.6457,-7.6266,-7.6268,-7.6269,0,-7.5243,-7.532,-7.54,-7.5452,-7.5492,-7.5576,-7.5629,-7.5651,-7.5706,-7.5787,-7.5844,-7.5932,-7.6002,-7.6143,-7.6182,-7.6262,-7.6256,-7.6336,-7.6268,-7.6262,-7.6253,-7.6247,-7.6253,-7.6347,-7.6349,-7.6351,-7.6352,0,-7.5417,-7.543,-7.5508,-7.5592,-7.5656,-7.5723,-7.5787,-7.583,-7.5861,-7.5923,-7.6014,-7.6069,-7.6178,-7.6264,-7.6346,-7.6382,-7.6372,-7.6374,-7.6395,-7.6389,-7.6375,-7.638,-7.6152,-7.6367,-7.6365,-7.6364,-7.6364,-7.6363,-7.5536,-7.5604,-7.5671,-7.5758,-7.581,-7.587,-7.5937,-7.5975,-7.6052,-7.6143,-7.6152,-7.6249,-7.6313,-7.6422,-7.6463,-7.6539,-7.6515,-7.6546,-7.6553,-7.6559,-7.6563,-7.6367,-7.6554,-7.6554,-7.6554,-7.6553,-7.6553,0,-7.5707,-7.575,-7.5831,-7.5922,-7.599,-7.5979,-7.605,-7.6106,-7.6193,-7.6255,-7.6325,-7.6429,-7.6514,-7.6561,-7.6644,-7.6695,-7.6692,-7.6716,-7.671,-7.6718,-7.6581,-7.6553,-7.6717,-7.6717,-7.6717,-7.6717,-7.6717,-7.6717,-7.5803,-7.5916,-7.5938,-7.6076,-7.6119,-7.6216,-7.6257,-7.6313,-7.6362,-7.6479,-7.655,-7.6581,-7.6636,-7.6724,-7.68,-7.6812,-7.6841,-7.6867,-7.6875,-7.6745,-7.6728,-7.6712,-7.6685,-7.6874,-7.6874,-7.7005,-7.7006,-7.7007]},{"header":{"parameterUnit":"m.s-1","parameterCategory":1,"la1":30.2991,"la2":30.254,"lo1":-89.0895,"lo2":-89.0444,"dy":0.0017,"dx":0.0017,"nx":28,"ny":28,"refTime":"2024-04-27T03:00:00:Z","depth":0,"parameterNumber":3,"parameterNumberName":"V-component_of_WINDS"},"data":[0,0,0,0,0,0,0,0,0,0,0,0,0,0,0,0,0,0,0,0,0,0,0,0,0,0,0,0,0,0,0,0,0,0,0,0,0,0,0,0,0,0,0,0,0,0,0,0,0,0,0,0,0,0,0,0,0,0,4.3083,4.3084,0,4.3166,4.3167,4.3168,4.3153,4.3152,4.315,4.3149,4.3228,4.3232,4.3235,0,0,0,0,0,0,0,0,0,0,0,0,0,4.2909,4.2913,4.3083,4.3084,4.3085,4.3166,4.3167,4.3168,4.3153,4.3151,4.315,4.3148,4.3227,4.3231,4.3235,0,0,0,0,0,0,0,0,0,0,0,0,0,4.2988,4.2914,4.3083,4.3088,4.3089,4.3166,4.3167,4.3168,4.3154,4.3151,4.3149,4.3147,4.3226,4.3231,4.3236,4.3311,0,0,4.3252,4.3254,0,0,0,0,0,0,0,0,4.2983,4.2994,4.3086,4.3088,4.3089,4.3147,4.3135,4.3216,4.3154,4.3129,4.3149,4.3146,4.3203,4.321,4.323,4.3315,4.3319,4.3252,4.3255,4.3258,4.3259,0,0,0,0,0,0,0,4.2978,4.299,4.3116,4.3087,4.3089,4.3085,4.3093,4.315,4.3177,4.3131,4.313,4.314,4.3203,4.3225,4.3231,4.332,4.3252,4.3257,4.326,4.3262,4.3474,4.3476,0,0,0,0,0,0,4.2972,4.2986,4.3113,4.3118,4.303,4.309,4.3099,4.3131,4.3176,4.3181,4.3142,4.3139,4.3217,4.3225,4.3234,4.3327,4.3258,4.3262,4.3265,4.3471,4.3474,4.3477,0,0,0,0,0,0,4.2968,4.2983,4.311,4.3052,4.3068,4.3095,4.313,4.3133,4.3155,4.3185,4.3189,4.316,4.3216,4.3227,4.3293,4.333,4.3265,4.3269,4.3468,4.3472,4.3476,4.3513,0,0,0,0,0,0,4.2963,4.2982,4.3011,4.3053,4.3071,4.3169,4.3132,4.3137,4.3165,4.3162,4.3202,4.3207,4.3215,4.3286,4.3298,4.3336,4.3274,4.3465,4.347,4.3474,4.3508,4.3517,4.3525,0,0,0,0,0,4.2957,4.3017,4.3013,4.3028,4.3109,4.3171,4.3181,4.319,4.3168,4.3197,4.3217,4.3205,4.3324,4.3293,4.3307,4.3346,4.3463,4.3469,4.3474,4.3504,4.3515,4.3525,0,0,0,0,0,0,4.2976,4.3022,4.3018,4.3094,4.3129,4.3168,4.3205,4.3201,4.3242,4.3237,4.3245,4.3255,4.3323,4.3341,4.3305,4.3423,4.339,4.3399,4.3408,4.3419,4.3427,4.3421,4.3278,0,0,0,0,0,4.2989,4.3037,4.3074,4.3137,4.3155,4.3178,4.3205,4.321,4.3245,4.3259,4.3283,4.3317,4.3363,4.3392,4.3434,4.3511,4.352,4.3545,4.3554,4.356,4.3568,4.3611,4.3623,4.3495,4.3495,4.3495,0,0,4.3017,4.3048,4.3077,4.3142,4.317,4.3218,4.319,4.3242,4.3278,4.3267,4.3332,4.3351,4.3389,4.3462,4.3495,4.3479,4.3605,4.3568,4.3573,4.3576,4.3618,4.363,4.3641,4.3499,4.3499,4.3498,0,0,4.3091,4.312,4.3177,4.3206,4.3249,4.3264,4.3278,4.3319,4.3332,4.3398,4.3391,4.3434,4.351,4.3539,4.3563,4.3653,4.3644,4.3666,4.3709,4.3752,4.3762,4.3771,4.3803,4.3815,4.3674,4.3674,4.3674,0,4.3119,4.3194,4.3205,4.326,4.3289,4.3284,4.3341,4.3368,4.3423,4.3442,4.3425,4.3523,4.3548,4.3628,4.3651,4.367,4.3686,4.3661,4.376,4.3769,4.3777,4.3808,4.3821,4.3676,4.3676,4.3676,4.3675,0,4.3227,4.3279,4.3319,4.3375,4.3408,4.3463,4.3483,4.3516,4.3518,4.3535,4.3603,4.3634,4.3684,4.3703,4.3705,4.3784,4.3773,4.3758,4.3725,4.3792,4.3821,4.3833,4.368,4.3679,4.3678,4.3678,0,0,4.3313,4.3378,4.3392,4.3419,4.3468,4.3507,4.3563,4.3614,4.3642,4.3681,4.3727,4.3794,4.3781,4.3809,4.3814,4.3851,4.3922,4.3831,4.3832,4.3847,4.4012,4.4024,4.4037,4.3917,4.3919,4.3921,4.4009,0,4.3394,4.3494,4.3507,4.3595,4.3644,4.3641,4.369,4.3725,4.3743,4.3786,4.3804,4.3852,4.3831,4.3848,4.3885,4.3905,4.3955,4.3899,4.396,4.3962,4.395,4.4053,4.4065,4.4146,4.4021,4.4023,4.4024,0,4.35,4.3544,4.3638,4.3683,4.3704,4.3747,4.3797,4.3838,4.3878,4.3888,4.3922,4.3923,4.398,4.3946,4.4025,4.3987,4.4012,4.4027,4.403,4.4035,4.3997,4.4061,4.4172,4.4185,4.4042,4.4041,4.4039,0,4.3555,4.3638,4.3706,4.3728,4.3781,4.3812,4.3836,4.3874,4.3905,4.3948,4.3968,4.4016,4.4042,4.4079,4.4093,4.4067,4.4172,4.4138,4.4182,4.4181,4.4203,4.4201,4.432,4.422,4.422,4.4219,4.4219,0,4.3643,4.37,4.3732,4.3773,4.3838,4.3853,4.3916,4.3938,4.3973,4.4018,4.4018,4.406,4.4076,4.4121,4.4132,4.4197,4.4208,4.4218,4.422,4.4218,4.4217,4.4235,4.4229,4.4223,4.4222,4.4221,4.4221,0,4.3715,4.3738,4.3812,4.3858,4.3871,4.3917,4.3955,4.3995,4.4014,4.4071,4.4086,4.4114,4.4167,4.4186,4.4249,4.4256,4.4332,4.4329,4.4319,4.4319,4.4362,4.4358,4.4495,4.4515,4.4402,4.4403,4.4404,0,4.3769,4.3814,4.3866,4.3898,4.3924,4.3974,4.4006,4.4023,4.4057,4.4108,4.4141,4.4195,4.4238,4.4323,4.4348,4.4397,4.4396,4.4441,4.4403,4.44,4.4397,4.4395,4.44,4.4448,4.4449,4.445,4.4451,0,4.3864,4.3874,4.3922,4.3975,4.4015,4.4056,4.4096,4.4122,4.4145,4.4182,4.4238,4.4272,4.4339,4.4392,4.4443,4.4465,4.4462,4.4463,4.4476,4.4474,4.4466,4.4472,4.4338,4.4459,4.4458,4.4458,4.4457,4.4457,4.393,4.397,4.4014,4.4068,4.4101,4.4139,4.418,4.4205,4.4252,4.4309,4.4316,4.4376,4.4417,4.4485,4.4511,4.4557,4.4545,4.4563,4.4567,4.4572,4.4575,4.446,4.4566,4.4566,4.4566,4.4566,4.4566,0,4.4025,4.4054,4.4104,4.4162,4.4204,4.42,4.4245,4.4281,4.4334,4.4373,4.4417,4.4482,4.4534,4.4565,4.4617,4.4649,4.4648,4.4662,4.4659,4.4665,4.4583,4.4567,4.4661,4.4661,4.4661,4.4661,4.4661,4.4661,4.408,4.4149,4.4165,4.425,4.4278,4.4339,4.4365,4.4401,4.4432,4.4505,4.455,4.4571,4.4606,4.4662,4.4709,4.4717,4.4736,4.4751,4.4757,4.468,4.467,4.4661,4.4646,4.4755,4.4755,4.4835,4.4836,4.4837]}]]